Litchfield, MN

7:57 PM CST on February 06, 2016 (GMT -0600)
Litchfield Municipal

Weather History for KLJF - March, 2014

Change the Weather History Date:

Saturday, March 1, 2014

  Actual Average Record
Temperature  
Mean Temperature -6 °F -  
Max Temperature 0 °F 35 °F 59 °F (1990)
Min Temperature -11 °F 16 °F -32 °F (1962)
Degree Days  
Heating Degree Days 70    
Moisture  
Dew Point -17 °F    
Average Humidity 59    
Maximum Humidity 71    
Minimum Humidity 50    
Precipitation  
Precipitation 0.00 in - - ()
Sea Level Pressure  
Sea Level Pressure 30.41 in    
Wind  
Wind Speed 14 mph (NW)    
Max Wind Speed 18 mph    
Max Gust Speed 25 mph    
Visibility 10 miles    
Events      
Averages and records for this station are not official NWS values.
T = Trace of Precipitation, MM = Missing Value Source: NWS Daily Summary

Daily Weather History Graph

Daily Weather History Graph

Search for Another Location

Airport or City:

Trip Planner

Search our weather history database for the weather conditions in past years. The results will help you decide how hot, cold, wet, or windy it might be!

Date:

Astronomy

Mar. 01, 2014 Rise Set
Actual Time 6:55 AM CST 6:05 PM CST
Civil Twilight 6:26 AM CST 6:35 PM CST
Nautical Twilight 5:52 AM CST 7:09 PM CST
Astronomical Twilight 5:18 AM CST 7:43 PM CST
Moon 6:47 AM CST (3/1) 6:57 PM CST (3/1)
Length of Visible Light 12h 08m
Length of Day
11h 09m
New Moon, 0% of the Moon is Illuminated
Mar 1
New Moon
Mar 8
First Quarter
Mar 16
Full
Mar 23
Last Quarter
Mar 30
New

Hourly Weather History & Observations

Time (CST) Temp. Windchill Dew Point Humidity Pressure Visibility Wind Dir Wind Speed Gust Speed Precip Events Conditions
12:12 AM -0.4 °F -21.7 °F -9.4 °F 66% 30.20 in 10.0 mi NNW 18.4 mph - N/A   Mostly Cloudy
12:33 AM -2.2 °F -22.2 °F -9.4 °F 71% 30.22 in 10.0 mi NW 15.0 mph 19.6 mph N/A   Scattered Clouds
12:53 AM -2.2 °F -23.5 °F -9.4 °F 71% 30.22 in 10.0 mi NNW 17.3 mph 21.9 mph N/A   Clear
1:13 AM -2.2 °F -24.1 °F -9.4 °F 71% 30.23 in 10.0 mi NNW 18.4 mph 21.9 mph N/A   Clear
1:33 AM -2.2 °F -22.9 °F -9.4 °F 71% 30.26 in 10.0 mi NNW 16.1 mph 20.7 mph N/A   Clear
1:53 AM -2.2 °F -22.9 °F -11.2 °F 66% 30.25 in 10.0 mi NNW 16.1 mph 25.3 mph N/A   Clear
2:13 AM -2.2 °F -22.2 °F -9.4 °F 71% 30.27 in 10.0 mi NNW 15.0 mph 19.6 mph N/A   Clear
2:33 AM -2.2 °F -20.7 °F -9.4 °F 71% 30.27 in 10.0 mi NNW 12.7 mph 20.7 mph N/A   Scattered Clouds
2:53 AM -4.0 °F -24.5 °F -11.2 °F 71% 30.28 in 10.0 mi NNW 15.0 mph 20.7 mph N/A   Scattered Clouds
3:13 AM -4.0 °F -25.8 °F -11.2 °F 71% 30.27 in 10.0 mi NNW 17.3 mph 23.0 mph N/A   Scattered Clouds
3:33 AM -4.0 °F -23.7 °F -11.2 °F 71% 30.27 in 10.0 mi NNW 13.8 mph 20.7 mph N/A   Scattered Clouds
3:53 AM -4.0 °F -24.5 °F -13.0 °F 65% 30.28 in 10.0 mi NNW 15.0 mph - N/A   Clear
4:13 AM -5.8 °F -26.8 °F -13.0 °F 71% 30.30 in 10.0 mi NNW 15.0 mph - N/A   Clear
4:33 AM -5.8 °F -26.0 °F -13.0 °F 71% 30.31 in 10.0 mi NNW 13.8 mph - N/A   Clear
4:53 AM -5.8 °F -25.2 °F -13.0 °F 71% 30.33 in 10.0 mi NNW 12.7 mph - N/A   Scattered Clouds
5:13 AM -5.8 °F -26.0 °F -14.8 °F 65% 30.32 in 10.0 mi NNW 13.8 mph - N/A   Clear
5:33 AM -5.8 °F -24.4 °F -14.8 °F 65% 30.33 in 10.0 mi NNW 11.5 mph 16.1 mph N/A   Clear
5:53 AM -5.8 °F -25.2 °F -14.8 °F 65% 30.35 in 10.0 mi NNW 12.7 mph 17.3 mph N/A   Clear
6:12 AM -5.8 °F -25.2 °F -14.8 °F 65% 30.37 in 10.0 mi NNW 12.7 mph - N/A   Clear
6:33 AM -5.8 °F -24.4 °F -16.6 °F 60% 30.34 in 10.0 mi NNW 11.5 mph - N/A   Clear
6:53 AM -7.6 °F -28.3 °F -16.6 °F 65% 30.37 in 10.0 mi NNW 13.8 mph - N/A   Clear
7:13 AM -7.6 °F -27.5 °F -16.6 °F 65% 30.38 in 10.0 mi NNW 12.7 mph 17.3 mph N/A   Clear
7:33 AM -7.6 °F -28.3 °F -16.6 °F 65% 30.37 in 10.0 mi North 13.8 mph - N/A   Clear
7:53 AM -7.6 °F -25.7 °F -16.6 °F 65% 30.39 in 10.0 mi NNW 10.4 mph - N/A   Clear
8:13 AM -7.6 °F -29.1 °F -18.4 °F 59% 30.41 in 10.0 mi NNW 15.0 mph 19.6 mph N/A   Clear
8:33 AM -5.8 °F -25.2 °F -18.4 °F 55% 30.41 in 10.0 mi NNW 12.7 mph 18.4 mph N/A   Clear
8:52 AM -5.8 °F -27.5 °F -18.4 °F 55% 30.40 in 10.0 mi NNW 16.1 mph - N/A   Scattered Clouds
9:13 AM -5.8 °F -24.4 °F -18.4 °F 55% 30.42 in 10.0 mi NNW 11.5 mph - N/A   Clear
9:33 AM -5.8 °F -22.4 °F -18.4 °F 55% 30.44 in 10.0 mi NW 9.2 mph - N/A   Scattered Clouds
9:52 AM -5.8 °F -24.4 °F -20.2 °F 50% 30.45 in 10.0 mi NW 11.5 mph 18.4 mph N/A   Clear
10:13 AM -5.8 °F -24.4 °F -18.4 °F 55% 30.46 in 10.0 mi NW 11.5 mph 18.4 mph N/A   Clear
10:32 AM -5.8 °F -25.2 °F -20.2 °F 50% 30.45 in 10.0 mi NW 12.7 mph 16.1 mph N/A   Clear
10:53 AM -5.8 °F -26.0 °F -18.4 °F 55% 30.46 in 10.0 mi NW 13.8 mph - N/A   Clear
11:13 AM -5.8 °F -25.2 °F -18.4 °F 55% 30.46 in 10.0 mi WNW 12.7 mph 19.6 mph N/A   Clear
11:32 AM -5.8 °F -25.2 °F -18.4 °F 55% 30.47 in 10.0 mi NW 12.7 mph 18.4 mph N/A   Clear
11:53 AM -4.0 °F -23.7 °F -18.4 °F 50% 30.47 in 10.0 mi NW 13.8 mph 19.6 mph N/A   Clear
12:13 PM -4.0 °F -24.5 °F -18.4 °F 50% 30.47 in 10.0 mi NNW 15.0 mph 18.4 mph N/A   Clear
12:32 PM -4.0 °F -23.7 °F -18.4 °F 50% 30.45 in 10.0 mi NW 13.8 mph 18.4 mph N/A   Clear
12:53 PM -4.0 °F -23.7 °F -18.4 °F 50% 30.46 in 10.0 mi NW 13.8 mph 18.4 mph N/A   Clear
1:13 PM -4.0 °F -26.4 °F -18.4 °F 50% 30.46 in 10.0 mi NW 18.4 mph 23.0 mph N/A   Clear
1:32 PM -4.0 °F -24.5 °F -18.4 °F 50% 30.45 in 10.0 mi NW 15.0 mph 20.7 mph N/A   Clear
1:53 PM -4.0 °F -25.2 °F -18.4 °F 50% 30.44 in 10.0 mi NNW 16.1 mph - N/A   Clear
2:13 PM -4.0 °F -26.4 °F -18.4 °F 50% 30.40 in 10.0 mi NNW 18.4 mph - N/A   Clear
2:32 PM -4.0 °F -23.0 °F -18.4 °F 50% 30.48 in 10.0 mi WNW 12.7 mph 17.3 mph N/A   Clear
2:53 PM -4.0 °F -23.0 °F -18.4 °F 50% 30.45 in 10.0 mi NW 12.7 mph - N/A   Clear
3:13 PM -4.0 °F -23.0 °F -18.4 °F 50% 30.46 in 10.0 mi NNW 12.7 mph - N/A   Clear
3:32 PM -4.0 °F -23.7 °F -18.4 °F 50% 30.46 in 10.0 mi NNW 13.8 mph 17.3 mph N/A   Clear
3:53 PM -5.8 °F -23.4 °F -18.4 °F 55% 30.45 in 10.0 mi NNW 10.4 mph - N/A   Clear
4:13 PM -5.8 °F -24.4 °F -18.4 °F 55% 30.47 in 10.0 mi NW 11.5 mph 17.3 mph N/A   Clear
4:32 PM -5.8 °F -25.2 °F -18.4 °F 55% 30.46 in 10.0 mi NW 12.7 mph 17.3 mph N/A   Clear
4:53 PM -5.8 °F -24.4 °F -18.4 °F 55% 30.47 in 10.0 mi NW 11.5 mph - N/A   Clear
5:13 PM -5.8 °F -25.2 °F -18.4 °F 55% 30.45 in 10.0 mi NW 12.7 mph 16.1 mph N/A   Scattered Clouds
5:32 PM -5.8 °F -24.4 °F -18.4 °F 55% 30.47 in 10.0 mi NNW 11.5 mph - N/A   Scattered Clouds
5:53 PM -5.8 °F -26.0 °F -18.4 °F 55% 30.48 in 10.0 mi NW 13.8 mph 18.4 mph N/A   Overcast
6:12 PM -5.8 °F -24.4 °F -18.4 °F 55% 30.48 in 10.0 mi NW 11.5 mph 17.3 mph N/A   Overcast
6:33 PM -5.8 °F -25.2 °F -18.4 °F 55% 30.48 in 10.0 mi NNW 12.7 mph - N/A   Mostly Cloudy
6:53 PM -5.8 °F -26.0 °F -18.4 °F 55% 30.50 in 10.0 mi NW 13.8 mph - N/A   Scattered Clouds
7:12 PM -5.8 °F -22.4 °F -18.4 °F 55% 30.50 in 10.0 mi NW 9.2 mph - N/A   Scattered Clouds
7:33 PM -7.6 °F -27.5 °F -18.4 °F 59% 30.48 in 10.0 mi NNW 12.7 mph - N/A   Scattered Clouds
7:53 PM -7.6 °F -27.5 °F -20.2 °F 54% 30.49 in 10.0 mi NW 12.7 mph 20.7 mph N/A   Scattered Clouds
8:12 PM -7.6 °F -27.5 °F -18.4 °F 59% 30.48 in 10.0 mi NW 12.7 mph - N/A   Scattered Clouds
8:33 PM -7.6 °F -29.8 °F -18.4 °F 59% 30.49 in 10.0 mi NNW 16.1 mph 19.6 mph N/A   Mostly Cloudy
8:52 PM -7.6 °F -29.1 °F -20.2 °F 54% 30.49 in 10.0 mi NNW 15.0 mph 19.6 mph N/A   Mostly Cloudy
9:13 PM -7.6 °F -28.3 °F -20.2 °F 54% 30.49 in 10.0 mi NNW 13.8 mph - N/A   Mostly Cloudy
9:33 PM -7.6 °F -25.7 °F -20.2 °F 54% 30.51 in 10.0 mi NW 10.4 mph 17.3 mph N/A   Scattered Clouds
9:52 PM -9.4 °F -30.6 °F -20.2 °F 59% 30.52 in 10.0 mi NNW 13.8 mph - N/A   Clear
10:13 PM -9.4 °F -28.9 °F -18.4 °F 65% 30.52 in 10.0 mi NW 11.5 mph - N/A   Clear
10:33 PM -9.4 °F -27.9 °F -20.2 °F 59% 30.52 in 10.0 mi NW 10.4 mph - N/A   Clear
10:52 PM -9.4 °F -28.9 °F -20.2 °F 59% 30.51 in 10.0 mi NW 11.5 mph - N/A   Clear
11:13 PM -11.2 °F -32.1 °F -20.2 °F 64% 30.51 in 10.0 mi NW 12.7 mph 16.1 mph N/A   Clear
11:33 PM -11.2 °F -30.1 °F -20.2 °F 64% 30.52 in 10.0 mi NNW 10.4 mph - N/A   Clear
11:52 PM -11.2 °F -29.0 °F -22.0 °F 59% 30.52 in 10.0 mi NW 9.2 mph - N/A   Clear